Regional Weather Roundup
Issued by NWS

Home | Current Version | Previous Version | Text Only | Print | Product List | Glossary On
Versions: 1 2 3 4 5 6 7 8 9 10 11 12 13 14 15 16 17 18 19 20 21 22 23 24 25 26 27 28 29 30 31 32 33 34 35 36 37 38 39 40 41 42 43 44 45 46 47 48 49 50
000
ASUS43 KBIS 211602
RWRND

NORTH DAKOTA REGIONAL WEATHER ROUNDUP
NATIONAL WEATHER SERVICE BISMARCK ND
1100 AM CDT MON MAY 21 2018

NOTE: "FAIR" INDICATES FEW OR NO CLOUDS BELOW 12,000 FEET WITH NO
SIGNIFICANT WEATHER AND/OR OBSTRUCTIONS TO VISIBILITY.


NDZ001>003-009>011-017-211700-
NORTHWEST NORTH DAKOTA

CITY           SKY/WX    TMP DP  RH WIND       PRES   REMARKS
WILLISTON      SUNNY     69  39  33 S15G21    29.94F
MINOT          SUNNY     72  31  22 S15G25    29.97F
$$

NDZ018>021-031>035-040>046-211700-
SOUTHWEST NORTH DAKOTA

CITY           SKY/WX    TMP DP  RH WIND       PRES   REMARKS
BISMARCK       SUNNY     65  41  41 SE8       30.00F
DICKINSON      SUNNY     65  36  34 S15G23    29.96F
GARRISON         N/A     65  35  33 S12       29.99F
HETTINGER ARPT SUNNY     62  39  42 SE15G21   30.00F
$$

NDZ004>008-012>016-024-026-027-054-211700-
NORTHEAST NORTH DAKOTA

CITY           SKY/WX    TMP DP  RH WIND       PRES   REMARKS
GRAND FORKS    PTSUNNY   68  36  30 SE9       30.04F
DEVILS LAKE    FAIR      66  37  34 SE8       30.04F
$$

NDZ022-023-025-028>030-036>039-047>053-211700-
SOUTHEAST NORTH DAKOTA

CITY           SKY/WX    TMP DP  RH WIND       PRES   REMARKS
FARGO          FAIR      68  42  38 SE6       30.03F
JAMESTOWN      SUNNY     68  49  50 S9        30.01F
$$





USA.gov is the U.S. government's official web portal to all federal, state and local government web resources and services.